Location: Sternwarte_Laufen
(47.9344°N, 12.9346°E)
Time: 14:09:44
(UTC+02:00)

ISS - Pass Details

Date: 16 May 2018
Orbit: 402 x 407 km, 51.6° (Epoch: 25 May)

Event Time Altitude Azimuth Distance (km) Brightness Sun altitude
Exits shadow 01:57:00 50° 43° (NE) 525 -3.0 -22.0°
Drops below altitude 10° 01:59:35 10° 65° (ENE) 1,459 -0.5 -21.9°
Sets 02:01:40 0° 68° (ENE) 2,320 0.5 -21.8°
